Year,Month,Day,Hour,Minute,Value (Times are PST for temperature in C)
2011,08,16,00,00,13.40
2011,08,16,00,01,13.40
2011,08,16,00,02,13.40
2011,08,16,00,03,13.40
2011,08,16,00,04,13.40
2011,08,16,00,05,13.40
2011,08,16,00,06,13.40
2011,08,16,00,07,13.40
2011,08,16,00,08,13.40
2011,08,16,00,09,13.40
2011,08,16,00,10,13.40
2011,08,16,00,11,13.30
2011,08,16,00,12,13.30
2011,08,16,00,16,13.30
2011,08,16,00,17,13.30
2011,08,16,00,18,13.30
2011,08,16,00,19,13.30
2011,08,16,00,20,13.30
2011,08,16,00,21,13.30
2011,08,16,00,22,13.30
2011,08,16,00,23,13.30
2011,08,16,00,24,13.30
2011,08,16,00,25,13.30
2011,08,16,00,26,13.30
2011,08,16,00,27,13.30
2011,08,16,00,28,13.30
2011,08,16,00,29,13.30
2011,08,16,00,30,13.30
2011,08,16,00,31,13.30
2011,08,16,00,32,13.30
2011,08,16,00,33,13.30
2011,08,16,00,34,13.30
2011,08,16,00,35,13.40
2011,08,16,00,36,13.40
2011,08,16,00,37,13.50
2011,08,16,00,38,13.50
2011,08,16,00,39,13.50
2011,08,16,00,40,13.50
2011,08,16,00,41,13.50
2011,08,16,00,42,13.50
2011,08,16,00,43,13.50
2011,08,16,00,44,13.50
2011,08,16,00,45,13.50
2011,08,16,00,46,13.40
2011,08,16,00,47,13.40
2011,08,16,00,48,13.40
2011,08,16,00,49,13.30
2011,08,16,00,50,13.30
2011,08,16,00,51,13.30
2011,08,16,00,52,13.30
2011,08,16,00,53,13.20
2011,08,16,00,54,13.20
2011,08,16,00,55,13.10
2011,08,16,00,56,13.10
2011,08,16,00,57,13.10
2011,08,16,00,58,13.00
2011,08,16,00,59,13.00
2011,08,16,01,00,12.90
2011,08,16,01,01,12.90
2011,08,16,01,02,12.90
2011,08,16,01,03,12.80
2011,08,16,01,04,12.80
2011,08,16,01,05,12.80
2011,08,16,01,06,12.80
2011,08,16,01,07,12.80
2011,08,16,01,08,12.80
2011,08,16,01,09,12.70
2011,08,16,01,10,12.70
2011,08,16,01,11,12.60
2011,08,16,01,12,12.60
2011,08,16,01,13,12.50
2011,08,16,01,14,12.50
2011,08,16,01,15,12.50
2011,08,16,01,16,12.40
2011,08,16,01,17,12.40
2011,08,16,01,18,12.40
2011,08,16,01,19,12.30
2011,08,16,01,20,12.30
2011,08,16,01,21,12.30
2011,08,16,01,22,12.30
2011,08,16,01,23,12.30
2011,08,16,01,24,12.30
2011,08,16,01,25,12.30
2011,08,16,01,26,12.30
2011,08,16,01,27,12.30
2011,08,16,01,28,12.30
2011,08,16,01,29,12.30
2011,08,16,01,30,12.20
2011,08,16,01,31,12.20
2011,08,16,01,32,12.20
2011,08,16,01,33,12.20
2011,08,16,01,34,12.20
2011,08,16,01,35,12.20
2011,08,16,01,36,12.10
2011,08,16,01,37,12.10
2011,08,16,01,38,12.10
2011,08,16,01,39,12.10
2011,08,16,01,40,12.10
2011,08,16,01,41,12.10
2011,08,16,01,42,12.10
2011,08,16,01,43,12.00
2011,08,16,01,44,12.00
2011,08,16,01,45,12.00
2011,08,16,01,46,12.00
2011,08,16,01,47,12.00
2011,08,16,01,48,11.90
2011,08,16,01,49,11.90
2011,08,16,01,50,11.90
2011,08,16,01,51,11.80
2011,08,16,01,52,11.80
2011,08,16,01,53,11.80
2011,08,16,01,54,11.80
2011,08,16,01,55,11.80
2011,08,16,01,56,11.70
2011,08,16,01,57,11.70
2011,08,16,01,58,11.70
2011,08,16,01,59,11.70
2011,08,16,02,00,11.60
2011,08,16,02,01,11.60
2011,08,16,02,02,11.60
2011,08,16,02,03,11.60
2011,08,16,02,04,11.60
2011,08,16,02,05,11.60
2011,08,16,02,06,11.60
2011,08,16,02,07,11.60
2011,08,16,02,08,11.40
2011,08,16,02,09,11.40
2011,08,16,02,10,11.40
2011,08,16,02,11,11.40
2011,08,16,02,12,11.40
2011,08,16,02,13,11.30
2011,08,16,02,14,11.30
2011,08,16,02,15,11.30
2011,08,16,02,16,11.20
2011,08,16,02,17,11.20
2011,08,16,02,18,11.20
2011,08,16,02,19,11.10
2011,08,16,02,20,11.10
2011,08,16,02,21,11.10
2011,08,16,02,22,11.10
2011,08,16,02,23,11.10
2011,08,16,02,24,11.10
2011,08,16,02,25,11.00
2011,08,16,02,26,10.90
2011,08,16,02,27,10.90
2011,08,16,02,28,10.90
2011,08,16,02,29,10.90
2011,08,16,02,30,10.90
2011,08,16,02,31,10.80
2011,08,16,02,32,10.80
2011,08,16,02,33,10.80
2011,08,16,02,34,10.80
2011,08,16,02,35,10.70
2011,08,16,02,36,10.70
2011,08,16,02,37,10.70
2011,08,16,02,38,10.60
2011,08,16,02,39,10.60
2011,08,16,02,40,10.60
2011,08,16,02,41,10.60
2011,08,16,02,42,10.60
2011,08,16,02,43,10.60
2011,08,16,02,44,10.60
2011,08,16,02,45,10.60
2011,08,16,02,46,10.60
2011,08,16,02,47,10.60
2011,08,16,02,48,10.60
2011,08,16,02,49,10.60
2011,08,16,02,50,10.60
2011,08,16,02,51,10.60
2011,08,16,02,52,10.60
2011,08,16,02,53,10.60
2011,08,16,02,54,10.60
2011,08,16,02,55,10.60
2011,08,16,02,56,10.60
2011,08,16,02,57,10.40
2011,08,16,02,58,10.40
2011,08,16,02,59,10.40
2011,08,16,03,00,10.40
2011,08,16,03,01,10.40
2011,08,16,03,02,10.40
2011,08,16,03,03,10.40
2011,08,16,03,04,10.40
2011,08,16,03,05,10.40
2011,08,16,03,06,10.40
2011,08,16,03,07,10.40
2011,08,16,03,08,10.40
2011,08,16,03,09,10.40
2011,08,16,03,10,10.40
2011,08,16,03,11,10.40
2011,08,16,03,12,10.40
2011,08,16,03,13,10.40
2011,08,16,03,14,10.40
2011,08,16,03,15,10.40
2011,08,16,03,16,10.40
2011,08,16,03,17,10.40
2011,08,16,03,18,10.40
2011,08,16,03,19,10.40
2011,08,16,03,20,10.40
2011,08,16,03,21,10.40
2011,08,16,03,22,10.40
2011,08,16,03,23,10.40
2011,08,16,03,24,10.40
2011,08,16,03,25,10.30
2011,08,16,03,26,10.30
2011,08,16,03,27,10.30
2011,08,16,03,28,10.30
2011,08,16,03,29,10.30
2011,08,16,03,30,10.30
2011,08,16,03,31,10.20
2011,08,16,03,32,10.20
2011,08,16,03,33,10.20
2011,08,16,03,34,10.20
2011,08,16,03,35,10.20
2011,08,16,03,36,10.20
2011,08,16,03,37,10.20
2011,08,16,03,38,10.10
2011,08,16,03,39,10.10
2011,08,16,03,40,10.10
2011,08,16,03,41,10.10
2011,08,16,03,42,10.10
2011,08,16,03,43,10.10
2011,08,16,03,44,10.10
2011,08,16,03,45,10.10
2011,08,16,03,46,10.10
2011,08,16,03,47,10.10
2011,08,16,03,48,10.10
2011,08,16,03,49,10.10
2011,08,16,03,50,10.10
2011,08,16,03,51,10.10
2011,08,16,03,52,10.10
2011,08,16,03,53,10.10
2011,08,16,03,54,10.10
2011,08,16,03,55,10.10
2011,08,16,03,56,9.90
2011,08,16,03,57,9.90
2011,08,16,03,58,9.90
2011,08,16,03,59,9.90
2011,08,16,04,00,9.90
2011,08,16,04,01,9.80
2011,08,16,04,02,9.80
2011,08,16,04,03,9.80
2011,08,16,04,04,9.70
2011,08,16,04,05,9.70
2011,08,16,04,06,9.70
2011,08,16,04,07,9.70
2011,08,16,04,08,9.70
2011,08,16,04,09,9.70
2011,08,16,04,10,9.70
2011,08,16,04,11,9.70
2011,08,16,04,12,9.70
2011,08,16,04,13,9.70
2011,08,16,04,14,9.70
2011,08,16,04,15,9.70
2011,08,16,04,16,9.70
2011,08,16,04,17,9.70
2011,08,16,04,18,9.70
2011,08,16,04,19,9.70
2011,08,16,04,20,9.60
2011,08,16,04,21,9.60
2011,08,16,04,22,9.60
2011,08,16,04,23,9.50
2011,08,16,04,24,9.50
2011,08,16,04,25,9.50
2011,08,16,04,26,9.50
2011,08,16,04,27,9.40
2011,08,16,04,28,9.40
2011,08,16,04,29,9.40
2011,08,16,04,30,9.30
2011,08,16,04,31,9.30
2011,08,16,04,32,9.30
2011,08,16,04,33,9.20
2011,08,16,04,34,9.20
2011,08,16,04,35,9.20
2011,08,16,04,36,9.20
2011,08,16,04,37,9.20
2011,08,16,04,38,9.20
2011,08,16,04,39,9.20
2011,08,16,04,40,9.10
2011,08,16,04,41,9.10
2011,08,16,04,42,9.10
2011,08,16,04,43,9.10
2011,08,16,04,44,9.10
2011,08,16,04,45,9.10
2011,08,16,04,46,9.10
2011,08,16,04,47,9.10
2011,08,16,04,48,9.10
2011,08,16,04,49,9.10
2011,08,16,04,50,9.20
2011,08,16,04,51,9.20
2011,08,16,04,52,9.20
2011,08,16,04,53,9.20
2011,08,16,04,54,9.20
2011,08,16,04,55,9.10
2011,08,16,04,56,9.10
2011,08,16,04,57,9.10
2011,08,16,04,58,9.10
2011,08,16,04,59,9.10
2011,08,16,05,00,9.10
2011,08,16,05,01,9.00
2011,08,16,05,02,9.00
2011,08,16,05,03,9.00
2011,08,16,05,04,9.00
2011,08,16,05,05,9.00
2011,08,16,05,06,8.90
2011,08,16,05,07,8.90
2011,08,16,05,08,8.90
2011,08,16,05,09,8.90
2011,08,16,05,10,8.90
2011,08,16,05,11,8.90
2011,08,16,05,12,8.90
2011,08,16,05,13,8.90
2011,08,16,05,14,8.90
2011,08,16,05,15,8.90
2011,08,16,05,16,8.90
2011,08,16,05,17,8.90
2011,08,16,05,18,8.90
2011,08,16,05,19,8.90
2011,08,16,05,20,8.90
2011,08,16,05,21,8.90
2011,08,16,05,22,8.90
2011,08,16,05,23,8.90
2011,08,16,05,24,8.80
2011,08,16,05,25,8.80
2011,08,16,05,26,8.80
2011,08,16,05,27,8.70
2011,08,16,05,28,8.70
2011,08,16,05,29,8.70
2011,08,16,05,30,8.70
2011,08,16,05,31,8.70
2011,08,16,05,32,8.70
2011,08,16,05,33,8.70
2011,08,16,05,34,8.70
2011,08,16,05,35,8.70
2011,08,16,05,36,8.70
2011,08,16,05,37,8.70
2011,08,16,05,38,8.70
2011,08,16,05,39,8.70
2011,08,16,05,40,8.70
2011,08,16,05,41,8.60
2011,08,16,05,42,8.60
2011,08,16,05,43,8.60
2011,08,16,05,44,8.60
2011,08,16,05,45,8.60
2011,08,16,05,46,8.60
2011,08,16,05,47,8.60
2011,08,16,05,48,8.60
2011,08,16,05,49,8.50
2011,08,16,05,50,8.50
2011,08,16,05,51,8.50
2011,08,16,05,52,8.50
2011,08,16,05,53,8.50
2011,08,16,05,54,8.40
2011,08,16,05,55,8.40
2011,08,16,05,56,8.40
2011,08,16,05,57,8.40
2011,08,16,05,58,8.40
2011,08,16,05,59,8.40
2011,08,16,06,00,8.40
2011,08,16,06,01,8.40
2011,08,16,06,02,8.40
2011,08,16,06,03,8.40
2011,08,16,06,04,8.40
2011,08,16,06,05,8.40
2011,08,16,06,06,8.40
2011,08,16,06,07,8.40
2011,08,16,06,08,8.40
2011,08,16,06,09,8.30
2011,08,16,06,10,8.30
2011,08,16,06,11,8.30
2011,08,16,06,12,8.30
2011,08,16,06,13,8.30
2011,08,16,06,14,8.30
2011,08,16,06,15,8.30
2011,08,16,06,16,8.30
2011,08,16,06,17,8.30
2011,08,16,06,18,8.30
2011,08,16,06,19,8.40
2011,08,16,06,20,8.40
2011,08,16,06,21,8.40
2011,08,16,06,22,8.40
2011,08,16,06,23,8.40
2011,08,16,06,24,8.40
2011,08,16,06,25,8.40
2011,08,16,06,26,8.40
2011,08,16,06,27,8.40
2011,08,16,06,28,8.40
2011,08,16,06,29,8.40
2011,08,16,06,30,8.40
2011,08,16,06,31,8.40
2011,08,16,06,32,8.40
2011,08,16,06,33,8.40
2011,08,16,06,34,8.40
2011,08,16,06,35,8.40
2011,08,16,06,36,8.40
2011,08,16,06,37,8.40
2011,08,16,06,38,8.40
2011,08,16,06,39,8.40
2011,08,16,06,40,8.40
2011,08,16,06,41,8.40
2011,08,16,06,42,8.40
2011,08,16,06,43,8.40
2011,08,16,06,44,8.50
2011,08,16,06,45,8.50
2011,08,16,06,46,8.50
2011,08,16,06,47,8.50
2011,08,16,06,48,8.50
2011,08,16,06,49,8.60
2011,08,16,06,50,8.60
2011,08,16,06,51,8.70
2011,08,16,06,52,8.70
2011,08,16,06,53,8.70
2011,08,16,06,54,8.70
2011,08,16,06,55,8.70
2011,08,16,06,56,8.80
2011,08,16,06,57,8.80
2011,08,16,06,58,8.80
2011,08,16,06,59,8.80
2011,08,16,07,00,8.90
2011,08,16,07,01,8.90
2011,08,16,07,02,9.00
2011,08,16,07,03,9.00
2011,08,16,07,04,9.10
2011,08,16,07,05,9.20
2011,08,16,07,06,9.20
2011,08,16,07,07,9.20
2011,08,16,07,08,9.30
2011,08,16,07,09,9.30
2011,08,16,07,10,9.40
2011,08,16,07,11,9.40
2011,08,16,07,12,9.40
2011,08,16,07,13,9.40
2011,08,16,07,14,9.50
2011,08,16,07,15,9.50
2011,08,16,07,16,9.60
2011,08,16,07,17,9.70
2011,08,16,07,18,9.70
2011,08,16,07,19,9.90
2011,08,16,07,20,10.00
2011,08,16,07,21,10.10
2011,08,16,07,22,10.30
2011,08,16,07,23,10.40
2011,08,16,07,24,10.50
2011,08,16,07,25,10.70
2011,08,16,07,26,10.80
2011,08,16,07,27,10.90
2011,08,16,07,28,11.00
2011,08,16,07,29,11.10
2011,08,16,07,30,11.20
2011,08,16,07,31,11.30
2011,08,16,07,32,11.30
2011,08,16,07,33,11.40
2011,08,16,07,34,11.40
2011,08,16,07,35,11.60
2011,08,16,07,36,11.60
2011,08,16,07,37,11.60
2011,08,16,07,38,11.60
2011,08,16,07,39,11.60
2011,08,16,07,40,11.60
2011,08,16,07,41,11.60
2011,08,16,07,42,11.70
2011,08,16,07,43,11.70
2011,08,16,07,44,11.70
2011,08,16,07,45,11.80
2011,08,16,07,46,11.90
2011,08,16,07,47,12.00
2011,08,16,07,48,12.10
2011,08,16,07,49,12.10
2011,08,16,07,50,12.20
2011,08,16,07,51,12.40
2011,08,16,07,52,12.50
2011,08,16,07,53,12.60
2011,08,16,07,54,12.80
2011,08,16,07,55,12.90
2011,08,16,07,56,13.00
2011,08,16,07,57,13.10
2011,08,16,07,58,13.30
2011,08,16,07,59,13.40
2011,08,16,08,00,13.50
2011,08,16,08,01,13.50
2011,08,16,08,02,13.60
2011,08,16,08,03,13.70
2011,08,16,08,04,13.70
2011,08,16,08,05,13.80
2011,08,16,08,06,14.00
2011,08,16,08,07,14.20
2011,08,16,08,08,14.30
2011,08,16,08,09,14.50
2011,08,16,08,10,14.60
2011,08,16,08,11,14.70
2011,08,16,08,12,14.80
2011,08,16,08,13,14.90
2011,08,16,08,14,14.90
2011,08,16,08,15,15.00
2011,08,16,08,16,15.10
2011,08,16,08,17,15.20
2011,08,16,08,18,15.30
2011,08,16,08,19,15.40
2011,08,16,08,20,15.50
2011,08,16,08,21,15.50
2011,08,16,08,22,15.60
2011,08,16,08,23,15.70
2011,08,16,08,24,15.80
2011,08,16,08,25,15.80
2011,08,16,08,26,15.80
2011,08,16,08,27,15.80
2011,08,16,08,28,15.80
2011,08,16,08,29,15.90
2011,08,16,08,30,16.00
2011,08,16,08,31,16.10
2011,08,16,08,32,16.10
2011,08,16,08,33,16.10
2011,08,16,08,34,16.20
2011,08,16,08,35,16.20
2011,08,16,08,36,16.10
2011,08,16,08,37,16.10
2011,08,16,08,38,16.10
2011,08,16,08,39,16.10
2011,08,16,08,40,16.10
2011,08,16,08,41,16.00
2011,08,16,08,42,15.90
2011,08,16,08,43,15.80
2011,08,16,08,44,15.80
2011,08,16,08,45,15.70
2011,08,16,08,46,15.70
2011,08,16,08,47,15.70
2011,08,16,08,48,15.80
2011,08,16,08,49,15.80
2011,08,16,08,50,15.90
2011,08,16,08,51,16.00
2011,08,16,08,52,16.10
2011,08,16,08,53,16.10
2011,08,16,08,54,16.10
2011,08,16,08,55,16.20
2011,08,16,08,56,16.30
2011,08,16,08,57,16.30
2011,08,16,08,58,16.40
2011,08,16,08,59,16.40
2011,08,16,09,00,16.40
2011,08,16,09,01,16.40
2011,08,16,09,02,16.40
2011,08,16,09,03,16.40
2011,08,16,09,04,16.40
2011,08,16,09,05,16.50
2011,08,16,09,06,16.60
2011,08,16,09,07,16.60
2011,08,16,09,08,16.70
2011,08,16,09,09,16.70
2011,08,16,09,10,16.70
2011,08,16,09,11,16.50
2011,08,16,09,12,16.40
2011,08,16,09,13,16.40
2011,08,16,09,14,16.30
2011,08,16,09,15,16.30
2011,08,16,09,16,16.30
2011,08,16,09,17,16.30
2011,08,16,09,18,16.20
2011,08,16,09,19,16.10
2011,08,16,09,20,16.10
2011,08,16,09,21,16.10
2011,08,16,09,22,16.00
2011,08,16,09,23,15.90
2011,08,16,09,24,16.00
2011,08,16,09,25,16.10
2011,08,16,09,26,16.10
2011,08,16,09,27,16.00
2011,08,16,09,28,15.90
2011,08,16,09,29,16.10
2011,08,16,09,30,16.10
2011,08,16,09,31,16.10
2011,08,16,09,32,16.10
2011,08,16,09,33,16.10
2011,08,16,09,34,16.10
2011,08,16,09,35,16.20
2011,08,16,09,36,16.30
2011,08,16,09,37,16.30
2011,08,16,09,38,16.30
2011,08,16,09,39,16.30
2011,08,16,09,40,16.30
2011,08,16,09,41,16.30
2011,08,16,09,42,16.30
2011,08,16,09,43,16.40
2011,08,16,09,44,16.40
2011,08,16,09,45,16.40
2011,08,16,09,46,16.60
2011,08,16,09,47,16.50
2011,08,16,09,48,16.40
2011,08,16,09,49,16.50
2011,08,16,09,50,16.60
2011,08,16,09,51,16.60
2011,08,16,09,52,16.60
2011,08,16,09,53,16.70
2011,08,16,09,54,16.70
2011,08,16,09,55,16.70
2011,08,16,09,56,16.80
2011,08,16,09,57,16.70
2011,08,16,09,58,16.70
2011,08,16,09,59,16.70
2011,08,16,10,00,16.60
2011,08,16,10,01,16.60
2011,08,16,10,02,16.70
2011,08,16,10,03,16.80
2011,08,16,10,04,16.80
2011,08,16,10,05,16.90
2011,08,16,10,06,17.00
2011,08,16,10,07,17.00
2011,08,16,10,08,17.00
2011,08,16,10,09,17.00
2011,08,16,10,10,17.10
2011,08,16,10,11,17.10
2011,08,16,10,12,17.10
2011,08,16,10,13,17.20
2011,08,16,10,14,17.30
2011,08,16,10,15,17.30
2011,08,16,10,16,17.30
2011,08,16,10,17,17.30
2011,08,16,10,18,17.30
2011,08,16,10,19,17.30
2011,08,16,10,20,17.30
2011,08,16,10,21,17.30
2011,08,16,10,22,17.30
2011,08,16,10,23,17.40
2011,08,16,10,24,17.30
2011,08,16,10,25,17.30
2011,08,16,10,26,17.30
2011,08,16,10,27,17.40
2011,08,16,10,28,17.50
2011,08,16,10,29,17.60
2011,08,16,10,30,17.60
2011,08,16,10,31,17.50
2011,08,16,10,32,17.50
2011,08,16,10,33,17.50
2011,08,16,10,34,17.50
2011,08,16,10,35,17.50
2011,08,16,10,36,17.50
2011,08,16,10,37,17.50
2011,08,16,10,38,17.50
2011,08,16,10,39,17.50
2011,08,16,10,40,17.50
2011,08,16,10,41,17.60
2011,08,16,10,42,17.70
2011,08,16,10,43,17.80
2011,08,16,10,44,17.90
2011,08,16,10,45,17.90
2011,08,16,10,46,18.00
2011,08,16,10,47,18.10
2011,08,16,10,48,18.20
2011,08,16,10,49,18.20
2011,08,16,10,50,18.20
2011,08,16,10,51,18.20
2011,08,16,10,52,18.20
2011,08,16,10,53,18.30
2011,08,16,10,54,18.40
2011,08,16,10,55,18.40
2011,08,16,10,56,18.50
2011,08,16,10,57,18.60
2011,08,16,10,58,18.70
2011,08,16,10,59,18.60
2011,08,16,11,00,18.50
2011,08,16,11,01,18.50
2011,08,16,11,02,18.60
2011,08,16,11,03,18.60
2011,08,16,11,04,18.70
2011,08,16,11,05,18.70
2011,08,16,11,06,18.60
2011,08,16,11,07,18.60
2011,08,16,11,08,18.50
2011,08,16,11,09,18.30
2011,08,16,11,10,18.20
2011,08,16,11,11,18.00
2011,08,16,11,12,17.90
2011,08,16,11,13,17.80
2011,08,16,11,14,17.90
2011,08,16,11,15,17.90
2011,08,16,11,16,17.80
2011,08,16,11,17,17.70
2011,08,16,11,18,17.70
2011,08,16,11,19,17.60
2011,08,16,11,20,17.60
2011,08,16,11,21,17.60
2011,08,16,11,22,17.60
2011,08,16,11,23,17.50
2011,08,16,11,24,17.50
2011,08,16,11,25,17.40
2011,08,16,11,26,17.30
2011,08,16,11,27,17.30
2011,08,16,11,28,17.30
2011,08,16,11,29,17.30
2011,08,16,11,30,17.30
2011,08,16,11,31,17.30
2011,08,16,11,32,17.40
2011,08,16,11,33,17.50
2011,08,16,11,34,17.40
2011,08,16,11,35,17.50
2011,08,16,11,36,17.70
2011,08,16,11,37,17.70
2011,08,16,11,38,17.60
2011,08,16,11,39,17.40
2011,08,16,11,40,17.00
2011,08,16,11,41,16.80
2011,08,16,11,42,16.70
2011,08,16,11,43,16.70
2011,08,16,11,44,16.70
2011,08,16,11,45,16.80
2011,08,16,11,46,16.90
2011,08,16,11,47,16.90
2011,08,16,11,48,17.00
2011,08,16,11,49,17.10
2011,08,16,11,50,17.10
2011,08,16,11,51,17.10
2011,08,16,11,52,17.10
2011,08,16,11,53,17.10
2011,08,16,11,54,17.10
2011,08,16,11,55,17.10
2011,08,16,11,56,17.20
2011,08,16,11,57,17.30
2011,08,16,11,58,17.50
2011,08,16,11,59,17.60
2011,08,16,12,00,17.70
2011,08,16,12,01,17.70
2011,08,16,12,02,17.60
2011,08,16,12,03,17.60
2011,08,16,12,04,17.60
2011,08,16,12,05,17.70
2011,08,16,12,06,17.70
2011,08,16,12,07,17.80
2011,08,16,12,08,17.90
2011,08,16,12,09,18.10
2011,08,16,12,10,18.20
2011,08,16,12,11,18.30
2011,08,16,12,12,18.40
2011,08,16,12,13,18.40
2011,08,16,12,14,18.30
2011,08,16,12,15,18.20
2011,08,16,12,16,18.10
2011,08,16,12,17,18.00
2011,08,16,12,18,17.90
2011,08,16,12,19,17.90
2011,08,16,12,20,17.90
2011,08,16,12,21,18.00
2011,08,16,12,22,18.10
2011,08,16,12,23,18.20
2011,08,16,12,24,18.20
2011,08,16,12,25,18.20
2011,08,16,12,26,18.10
2011,08,16,12,27,17.90
2011,08,16,12,28,17.70
2011,08,16,12,29,17.60
2011,08,16,12,30,17.60
2011,08,16,12,31,17.60
2011,08,16,12,32,17.60
2011,08,16,12,33,17.70
2011,08,16,12,34,17.80
2011,08,16,12,35,17.80
2011,08,16,12,36,17.80
2011,08,16,12,37,17.90
2011,08,16,12,38,17.90
2011,08,16,12,39,17.90
2011,08,16,12,40,17.90
2011,08,16,12,41,17.90
2011,08,16,12,42,17.90
2011,08,16,12,43,18.00
2011,08,16,12,44,18.10
2011,08,16,12,45,18.10
2011,08,16,12,46,18.20
2011,08,16,12,47,18.20
2011,08,16,12,48,18.20
2011,08,16,12,49,18.10
2011,08,16,12,50,18.10
2011,08,16,12,51,18.10
2011,08,16,12,52,17.90
2011,08,16,12,53,17.90
2011,08,16,12,54,17.90
2011,08,16,12,55,18.00
2011,08,16,12,56,18.10
2011,08,16,12,57,18.10
2011,08,16,12,58,18.10
2011,08,16,12,59,18.20
2011,08,16,13,00,18.10
2011,08,16,13,01,18.20
2011,08,16,13,02,18.20
2011,08,16,13,03,18.30
2011,08,16,13,04,18.20
2011,08,16,13,05,18.20
2011,08,16,13,06,18.20
2011,08,16,13,07,18.00
2011,08,16,13,08,17.90
2011,08,16,13,09,17.90
2011,08,16,13,10,17.90
2011,08,16,13,11,17.90
2011,08,16,13,12,17.90
2011,08,16,13,13,17.90
2011,08,16,13,14,17.90
2011,08,16,13,15,18.00
2011,08,16,13,16,18.10
2011,08,16,13,17,18.20
2011,08,16,13,18,18.20
2011,08,16,13,19,18.20
2011,08,16,13,20,18.20
2011,08,16,13,21,18.30
2011,08,16,13,22,18.30
2011,08,16,13,23,18.40
2011,08,16,13,24,18.40
2011,08,16,13,25,18.40
2011,08,16,13,26,18.50
2011,08,16,13,27,18.60
2011,08,16,13,28,18.60
2011,08,16,13,29,18.60
2011,08,16,13,30,18.60
2011,08,16,13,31,18.60
2011,08,16,13,32,18.60
2011,08,16,13,33,18.60
2011,08,16,13,34,18.50
2011,08,16,13,35,18.50
2011,08,16,13,36,18.40
2011,08,16,13,37,18.40
2011,08,16,13,38,18.30
2011,08,16,13,39,18.30
2011,08,16,13,40,18.30
2011,08,16,13,41,18.30
2011,08,16,13,42,18.40
2011,08,16,13,43,18.40
2011,08,16,13,44,18.50
2011,08,16,13,45,18.50
2011,08,16,13,46,18.60
2011,08,16,13,47,18.60
2011,08,16,13,48,18.70
2011,08,16,13,49,18.70
2011,08,16,13,50,18.70
2011,08,16,13,51,18.70
2011,08,16,13,52,18.80
2011,08,16,13,53,18.80
2011,08,16,13,54,18.90
2011,08,16,13,55,19.00
2011,08,16,13,56,19.10
2011,08,16,13,57,19.10
2011,08,16,13,58,19.20
2011,08,16,13,59,19.20
2011,08,16,14,00,19.30
2011,08,16,14,01,19.40
2011,08,16,14,02,19.40
2011,08,16,14,03,19.40
2011,08,16,14,04,19.30
2011,08,16,14,05,19.30
2011,08,16,14,06,19.30
2011,08,16,14,07,19.40
2011,08,16,14,08,19.40
2011,08,16,14,09,19.40
2011,08,16,14,10,19.50
2011,08,16,14,11,19.50
2011,08,16,14,12,19.50
2011,08,16,14,13,19.40
2011,08,16,14,14,19.40
2011,08,16,14,15,19.40
2011,08,16,14,16,19.50
2011,08,16,14,17,19.50
2011,08,16,14,18,19.60
2011,08,16,14,19,19.70
2011,08,16,14,20,19.70
2011,08,16,14,21,19.80
2011,08,16,14,22,19.90
2011,08,16,14,23,20.00
2011,08,16,14,24,20.10
2011,08,16,14,25,19.90
2011,08,16,14,26,19.90
2011,08,16,14,27,19.90
2011,08,16,14,28,19.90
2011,08,16,14,29,19.90
2011,08,16,14,30,19.90
2011,08,16,14,31,20.00
2011,08,16,14,32,20.00
2011,08,16,14,33,19.90
2011,08,16,14,34,20.00
2011,08,16,14,35,20.10
2011,08,16,14,36,20.20
2011,08,16,14,37,20.20
2011,08,16,14,38,20.30
2011,08,16,14,39,20.40
2011,08,16,14,40,20.50
2011,08,16,14,41,20.50
2011,08,16,14,42,20.50
2011,08,16,14,43,20.50
2011,08,16,14,44,20.50
2011,08,16,14,45,20.50
2011,08,16,14,46,20.60
2011,08,16,14,47,20.50
2011,08,16,14,48,20.40
2011,08,16,14,49,20.30
2011,08,16,14,50,20.40
2011,08,16,14,51,20.50
2011,08,16,14,52,20.50
2011,08,16,14,53,20.40
2011,08,16,14,54,20.30
2011,08,16,14,55,20.20
2011,08,16,14,56,20.20
2011,08,16,14,57,20.30
2011,08,16,14,58,20.40
2011,08,16,14,59,20.50
2011,08,16,15,00,20.70
2011,08,16,15,01,20.80
2011,08,16,15,02,20.80
2011,08,16,15,03,20.90
2011,08,16,15,04,21.00
2011,08,16,15,05,21.00
2011,08,16,15,06,20.80
2011,08,16,15,07,20.60
2011,08,16,15,08,20.50
2011,08,16,15,09,20.40
2011,08,16,15,10,20.40
2011,08,16,15,11,20.30
2011,08,16,15,12,20.20
2011,08,16,15,13,20.10
2011,08,16,15,14,20.00
2011,08,16,15,15,19.90
2011,08,16,15,16,19.90
2011,08,16,15,17,20.10
2011,08,16,15,18,20.20
2011,08,16,15,19,20.20
2011,08,16,15,20,20.40
2011,08,16,15,21,20.40
2011,08,16,15,22,20.60
2011,08,16,15,23,20.70
2011,08,16,15,24,20.70
2011,08,16,15,25,20.70
2011,08,16,15,26,20.70
2011,08,16,15,27,20.70
2011,08,16,15,28,20.60
2011,08,16,15,29,20.60
2011,08,16,15,30,20.60
2011,08,16,15,31,20.60
2011,08,16,15,32,20.60
2011,08,16,15,33,20.60
2011,08,16,15,34,20.60
2011,08,16,15,35,20.50
2011,08,16,15,36,20.60
2011,08,16,15,37,20.60
2011,08,16,15,38,20.70
2011,08,16,15,39,20.70
2011,08,16,15,40,20.70
2011,08,16,15,41,20.70
2011,08,16,15,42,20.70
2011,08,16,15,43,20.70
2011,08,16,15,44,20.70
2011,08,16,15,45,20.70
2011,08,16,15,46,20.80
2011,08,16,15,47,20.80
2011,08,16,15,48,20.80
2011,08,16,15,49,20.80
2011,08,16,15,50,20.80
2011,08,16,15,51,20.80
2011,08,16,15,52,20.70
2011,08,16,15,53,20.70
2011,08,16,15,54,20.70
2011,08,16,15,55,20.70
2011,08,16,15,56,20.80
2011,08,16,15,57,20.90
2011,08,16,15,58,20.90
2011,08,16,15,59,21.00
2011,08,16,16,00,21.00
2011,08,16,16,01,20.90
2011,08,16,16,02,21.00
2011,08,16,16,03,21.00
2011,08,16,16,04,21.00
2011,08,16,16,05,20.90
2011,08,16,16,06,20.90
2011,08,16,16,07,20.90
2011,08,16,16,08,20.90
2011,08,16,16,09,20.90
2011,08,16,16,10,20.90
2011,08,16,16,11,20.90
2011,08,16,16,12,20.80
2011,08,16,16,13,20.80
2011,08,16,16,14,20.80
2011,08,16,16,15,20.80
2011,08,16,16,16,20.90
2011,08,16,16,17,21.00
2011,08,16,16,18,21.30
2011,08,16,16,19,21.30
2011,08,16,16,20,21.30
2011,08,16,16,21,21.30
2011,08,16,16,22,21.10
2011,08,16,16,23,21.10
2011,08,16,16,24,21.00
2011,08,16,16,25,20.90
2011,08,16,16,26,21.00
2011,08,16,16,27,21.00
2011,08,16,16,28,21.10
2011,08,16,16,29,21.20
2011,08,16,16,30,21.20
2011,08,16,16,31,21.30
2011,08,16,16,32,21.30
2011,08,16,16,33,21.30
2011,08,16,16,34,21.30
2011,08,16,16,35,21.30
2011,08,16,16,36,21.30
2011,08,16,16,37,21.20
2011,08,16,16,38,21.20
2011,08,16,16,39,21.20
2011,08,16,16,40,21.30
2011,08,16,16,41,21.40
2011,08,16,16,42,21.50
2011,08,16,16,43,21.50
2011,08,16,16,44,21.30
2011,08,16,16,45,21.20
2011,08,16,16,46,21.10
2011,08,16,16,47,21.00
2011,08,16,16,48,21.10
2011,08,16,16,49,21.10
2011,08,16,16,50,21.10
2011,08,16,16,51,21.20
2011,08,16,16,52,21.20
2011,08,16,16,53,21.20
2011,08,16,16,54,21.20
2011,08,16,16,55,21.30
2011,08,16,16,56,21.30
2011,08,16,16,57,21.30
2011,08,16,16,58,21.30
2011,08,16,16,59,21.30
2011,08,16,17,00,21.30
2011,08,16,17,01,21.30
2011,08,16,17,02,21.30
2011,08,16,17,03,21.20
2011,08,16,17,04,21.20
2011,08,16,17,05,21.10
2011,08,16,17,06,21.10
2011,08,16,17,07,21.10
2011,08,16,17,08,21.10
2011,08,16,17,09,21.10
2011,08,16,17,10,21.10
2011,08,16,17,11,21.20
2011,08,16,17,12,21.20
2011,08,16,17,13,21.20
2011,08,16,17,14,21.20
2011,08,16,17,15,21.20
2011,08,16,17,16,21.20
2011,08,16,17,17,21.20
2011,08,16,17,18,21.30
2011,08,16,17,19,21.30
2011,08,16,17,20,21.20
2011,08,16,17,21,21.10
2011,08,16,17,22,21.10
2011,08,16,17,23,21.00
2011,08,16,17,24,21.00
2011,08,16,17,25,21.00
2011,08,16,17,26,21.10
2011,08,16,17,27,21.00
2011,08,16,17,28,21.00
2011,08,16,17,29,21.00
2011,08,16,17,30,21.00
2011,08,16,17,31,21.00